Weather Roundup
Issued by NWS Chicago, IL

Home | Current Version | Previous Version | Graphics & Text | Print | Product List | Glossary On
Versions: 1 2 3 4 5 6 7 8 9 10 11 12 13 14 15 16 17 18 19 20 21 22 23 24 25 26 27 28 29 30 31 32 33 34 35 36 37 38 39 40 41 42 43 44 45 46 47 48 49 50
000
NZUS59 KLOT 280006
HRRLOT

CHICAGO AREA WEATHER ROUNDUP
NATIONAL WEATHER SERVICE CHICAGO/ROMEOVILLE IL
700 PM CDT WED AUG 27 2014

NOTE: "FAIR" INDICATES FEW OR NO CLOUDS BELOW 12,000 FEET WITH NO
SIGNIFICANT WEATHER AND/OR OBSTRUCTIONS TO VISIBILITY.

* THESE STATIONS ARE NOT UNDER NWS QUALITY CONTROL. THEY ALSO MAY NOT
  REPORT WEATHER SUCH AS PRECIPITATION OR FOG.

ILZ005-006-012>014-019>023-280100-
NORTHEAST ILLINOIS

CITY           SKY/WX    TMP DP  RH WIND       PRES   REMARKS
OHARE          CLOUDY    71  59  65 NE10      30.10F
6HR MIN TEMP:  71; 6HR MAX TEMP:  82;

MIDWAY         MOCLDY    73  62  68 E12       30.11F
6HR MIN TEMP:  73; 6HR MAX TEMP:  81;

AURORA         CLOUDY    74  64  71 E9        30.10F
6HR MIN TEMP:  74; 6HR MAX TEMP:  82;

LANSING*       MOCLDY    70  61  74 NE9       30.11S
JOLIET*        MOCLDY    73  63  71 NE6       30.11S
WAUKEGAN       CLOUDY    68  61  78 NE6       30.11F
6HR MIN TEMP:  68; 6HR MAX TEMP:  74;

DUPAGE AIRPORT CLOUDY    72  63  73 NE8       30.10F
6HR MIN TEMP:  72; 6HR MAX TEMP:  84;

WHEELING       CLOUDY    71  62  73 NE7       30.12F
6HR MIN TEMP:  71; 6HR MAX TEMP:  79;

KANKAKEE*      PTCLDY    72  64  75 NE7       30.09S
MORRIS*        MOCLDY    76  66  72 E7        30.08F
LEWIS AIRPORT* MOCLDY    71  62  73 E12       30.10S
NORTHERLY IS     N/A     70  62  76 N10         N/A
$$

WIZ051-052-058>065-066-070>072-280100-
SOUTHEAST WISCONSIN

CITY           SKY/WX    TMP DP  RH WIND       PRES   REMARKS
MILWAUKEE      MOCLDY    66  60  81 E7        30.13F
6HR MIN TEMP:  66; 6HR MAX TEMP:  72;

KENOSHA*       CLOUDY    68  62  81 E8        30.13F
RACINE*        MOCLDY    68  60  75 NE8       30.14F
BURLINGTON     MOCLDY    68  62  82 E5        30.13S
WAUKESHA       MOCLDY    66  61  82 E7        30.14F
WEST BEND      PTCLDY    64  57  77 E6        30.14S
$$

INZ001>003-010>013-019-020-280100-
NORTHWEST INDIANA

CITY           SKY/WX    TMP DP  RH WIND       PRES   REMARKS
GARY*          MOCLDY    72  61  68 NE8       30.12F
MICHIGAN CITY* NOT AVBL
RENSSELAER*    NOT AVBL
VALPARAISO     MOCLDY    69  59  70 NE7       30.11F
$$

LMZ740>746-280100-
SOUTHERN LAKE MICHIGAN

STATION/POSITION TIME  SKY/WX   TEMP WIND        PRES    VSBY
                                AIR  DIR/SP/G
                 (UTC)          (F)  (DEG/KT/KT) (MB)    (MI)
HARRISON CRIB    0000            69   50/ 10/ 12   N/A
BURNHAM HARBOR   0000            70   60/  8/ 12   N/A
CALUMET HARBOR   0000            70   30/  6/ 10 1018.4R
BURNS HARBOR     NOT AVBL
MICHIGAN CITY    0000            69   20/ 15/ 16   N/A
$$

ABBREVIATIONS USED IN REMARKS
   TC - TEMPERATURE IN CELSIUS
  WCI - WIND CHILL INDEX
   HX - HEAT INDEX
  VSB - VISIBILITY
$$



USA.gov is the U.S. government's official web portal to all federal, state and local government web resources and services.